Location: North Evanston
(42.0634°N, 87.6976°W)
Time: 20:44:56
(UTC+00:00)

Injun/Solrad 3 - Pass Details

Date: 19 May 2026
Orbit: 867 x 989 km, 66.8° (Epoch: 6 June)

Event Time Altitude Azimuth Distance (km) Brightness Sun altitude
Rises 21:24:15 0° 238° (WSW) 3,523 11.7 39.5°
Reaches altitude 10° 21:26:58 10° 247° (WSW) 2,604 11.4 39.0°
Maximum altitude 21:32:27 35° 312° (NW) 1,480 10.0 38.0°
Drops below altitude 10° 21:38:08 10° 16° (NNE) 2,694 10.2 37.0°
Sets 21:40:59 0° 26° (NNE) 3,661 10.8 36.4°
